SCP
0 0 0 0 0 0 0 0 0 0 0 0 0 0 0 0 0 0 0 0 0 1 1 1 1 1 1 1 1 1 0 0 0 0 0 0 0 0 0 0 0 0 0 0 0 0 0 0 0
0 0 0 0 0 0 0 0 0 0 0 0 0 0 0 0 0 0 0 0 1 1 1 1 1 1 1 1 1 1 1 0 0 0 0 0 0 0 0 0 0 0 0 0 0 0 0 0 0
0 0 0 0 0 0 0 0 0 0 0 0 0 0 0 0 0 0 0 1 1 1 1 1 1 1 1 1 1 1 1 0 0 0 0 0 0 0 0 0 0 0 0 0 0 0 0 0 0
0 0 0 0 0 0 0 0 0 0 0 0 0 0 0 0 0 0 1 1 1 1 1 1 1 1 1 1 1 1 1 1 0 0 0 0 0 0 0 0 0 0 0 0 0 0 0 0 0
0 0 0 0 0 0 0 0 0 0 0 0 0 0 0 0 0 1 1 1 1 1 1 1 1 1 1 1 1 1 1 1 0 0 0 0 0 0 0 0 0 0 0 0 0 0 0 0 0
0 0 0 0 0 0 0 0 0 0 0 0 0 0 0 0 1 1 1 1 1 1 1 1 1 1 1 1 1 1 1 1 1 0 0 0 0 0 0 0 0 0 0 0 0 0 0 0 0
0 0 0 0 0 0 0 0 0 0 0 0 0 0 0 0 1 1 1 1 1 1 1 1 1 1 1 1 1 1 1 1 1 0 0 0 0 0 0 0 0 0 0 0 0 0 0 0 0
0 0 0 0 0 0 0 0 0 0 0 0 0 0 0 0 1 1 1 1 1 1 1 1 1 1 1 1 1 1 1 1 1 0 0 0 0 0 0 0 0 0 0 0 0 0 0 0 0
0 0 0 0 0 0 0 0 0 0 0 0 0 0 0 0 1 1 1 1 1 1 1 1 1 1 1 1 1 1 1 1 0 0 0 0 0 0 0 0 0 0 0 0 0 0 0 0 0
0 0 0 0 0 0 0 0 0 0 0 0 0 0 0 0 1 1 1 1 1 1 1 1 1 1 1 1 1 1 0 0 0 0 0 0 0 0 0 0 0 0 0 0 0 0 0 0 0
0 0 0 0 0 0 0 0 0 0 0 0 0 0 0 1 1 1 1 1 1 1 1 1 1 1 1 1 1 0 0 0 0 0 0 0 0 0 0 0 0 0 0 0 0 0 0 0 0
0 0 0 0 0 0 0 0 0 0 0 0 0 0 0 0 1 1 1 1 1 1 1 1 1 1 1 1 1 0 0 0 0 0 0 0 0 0 0 0 0 0 0 0 0 0 0 0 0
0 0 0 0 0 0 0 0 0 0 0 0 0 0 0 0 1 1 1 1 1 1 1 1 1 1 1 1 0 0 0 0 0 0 0 0 0 0 0 0 0 0 0 0 0 0 0 0 0
0 0 0 0 0 0 0 0 0 0 0 0 0 0 0 0 0 1 1 1 1 1 1 1 1 1 1 1 0 0 0 0 0 0 0 0 0 0 0 0 0 0 0 0 0 0 0 0 0
0 0 0 0 0 0 0 0 0 0 0 0 0 0 0 0 0 0 1 1 1 1 1 1 1 0 0 0 0 0 0 0 0 0 0 0 0 0 0 0 0 0 0 0 0 0 0 0 0
0 0 0 0 0 0 0 0 0 0 0 0 0 0 0 0 0 0 0 0 1 1 1 1 0 0 0 0 0 0 0 0 0 0 0 0 0 0 0 0 0 0 0 0 0 0 0 0 0
0 0 0 0 0 0 0 0 0 0 0 0 0 0 0 0 0 0 0 0 0 0 0 0 0 0 0 0 0 0 0 0 0 0 0 0 0 0 0 0 0 0 0 0 0 0 0 0 0
0 0 0 0 0 0 0 0 0 0 0 0 0 0 0 0 0 0 0 0 0 0 0 0 0 0 0 0 0 0 0 0 0 0 0 0 0 0 0 0 0 0 0 0 0 0 0 0 0
0 0 0 0 0 0 0 0 0 0 0 0 0 0 0 0 0 0 0 0 0 0 0 0 0 0 0 0 0 0 0 0 0 0 0 0 0 0 0 0 0 0 0 0 0 0 0 0 0
0 0 0 0 0 0 0 0 0 0 0 0 0 0 0 0 0 0 0 0 0 0 0 0 0 0 0 0 0 0 0 0 0 0 0 0 0 0 0 0 0 0 0 0 0 0 0 0 0
0 0 0 0 0 0 0 0 0 0 0 0 0 0 0 0 0 0 0 0 0 0 0 0 0 0 0 0 0 0 0 0 0 0 0 0 0 0 0 0 0 0 0 0 0 0 0 0 0
0 0 0 0 0 0 0 0 0 0 0 0 0 0 0 0 0 0 0 0 0 0 0 0 0 0 0 0 0 0 0 0 0 0 0 0 0 0 0 0 0 0 0 0 0 0 0 0 0
0 0 0 0 0 0 0 0 0 0 0 0 0 0 0 0 0 0 0 0 0 0 0 0 0 0 0 0 0 0 0 0 0 0 0 0 0 0 0 0 0 0 0 0 0 0 0 0 0
0 0 0 0 0 0 0 0 0 0 0 0 0 0 0 0 0 0 0 0 0 0 0 0 0 0 0 0 0 0 0 0 0 0 0 0 0 0 0 0 0 0 0 0 0 0 0 0 0
0 0 0 0 0 0 0 0 0 0 0 0 0 0 0 0 0 0 0 0 0 0 0 0 0 0 0 0 0 0 0 0 0 0 0 0 0 0 0 0 0 0 0 0 0 0 0 0 0
0 0 0 0 0 0 0 0 0 0 0 0 0 0 0 0 0 0 0 0 0 0 0 0 0 0 0 0 0 0 0 0 0 0 0 0 0 0 0 0 0 0 0 0 0 0 0 0 0
0 0 0 0 0 0 0 0 0 0 0 0 0 0 0 0 0 0 0 0 0 0 0 0 0 0 0 0 0 0 0 0 0 0 0 0 0 0 0 0 0 0 0 0 0 0 0 0 0
0 0 0 0 0 0 0 0 0 0 0 0 0 0 0 0 0 0 0 0 0 0 0 0 0 0 0 0 0 0 0 0 0 0 0 0 0 0 0 0 0 0 0 0 0 0 0 0 0
0 0 0 0 0 -0 -0 0 0 0 0 0 0 0 0 0 0 0 0 0 0 0 0 0 0 0 0 0 0 0 0 0 0 0 0 0 0 0 0 0 0 0 0 0 0 0 0 0 0
0 0 0 0 -0 -0 -0 0 0 0 0 0 0 0 0 0 0 0 0 0 0 0 0 0 0 0 0 0 0 0 0 0 0 0 0 0 0 0 0 0 0 0 0 0 0 0 0 0 0
Wind_Speed
8 5 2 4 6 3 4 6 4 2 2 2 1 5 6 4 3 4 1 5 8 9 9 11 12 12 12 12 12 12 12 12 12 13 13 13 13 13 13 13 13 13 14 14 14 14 15 15 15
4 2 4 5 4 3 6 5 5 6 4 2 2 3 4 2 2 4 3 5 10 10 8 10 12 12 12 12 12 12 12 12 12 13 13 13 13 13 13 13 13 13 14 14 14 14 14 14 14
4 1 4 4 4 7 6 4 7 5 2 2 2 2 3 2 2 2 3 8 10 9 7 9 12 12 12 12 12 12 12 12 12 12 12 12 12 12 13 13 13 13 13 13 13 13 13 13 14
2 3 3 2 7 8 6 4 3 2 1 1 3 3 2 2 1 3 7 9 10 8 7 9 12 12 12 12 12 12 12 12 12 12 12 12 12 12 13 13 13 13 13 13 12 12 13 12 13
3 3 2 3 8 6 4 3 1 0 0 1 3 4 2 4 3 7 8 9 10 7 6 8 11 12 12 12 12 12 12 12 12 12 12 12 12 12 12 12 13 13 13 13 12 12 12 12 13
3 3 3 7 8 5 3 2 0 1 1 1 2 4 2 2 4 6 7 7 8 8 6 7 10 10 11 11 11 12 11 11 11 11 12 12 11 11 11 12 12 12 12 12 12 11 11 12 13
3 3 5 6 5 4 3 1 1 2 1 1 1 4 1 2 2 4 6 7 7 7 6 5 5 7 9 10 10 10 10 10 10 11 11 11 10 10 11 11 11 12 12 12 11 11 11 11 12
3 3 3 4 4 4 2 0 0 1 1 1 2 5 2 2 1 4 6 7 6 5 5 4 4 4 5 6 9 10 10 10 10 11 10 10 9 9 10 9 10 10 11 11 11 10 10 10 11
2 2 5 6 4 2 2 1 3 2 3 3 3 1 2 3 5 7 6 5 5 5 4 4 4 4 4 4 7 8 9 9 10 9 10 8 5 5 5 7 9 9 10 10 10 10 10 9 10
3 4 7 3 1 1 1 1 2 2 3 4 5 6 4 5 6 7 6 6 5 4 3 3 3 4 4 4 4 4 4 5 5 5 6 4 4 4 5 7 8 8 8 8 8 9 8 7 4
2 4 3 2 1 0 0 2 2 2 1 0 1 2 3 5 5 5 4 4 4 4 3 3 3 3 4 3 3 2 2 3 4 5 5 4 3 3 3 2 3 4 5 3 5 4 3 3 3
2 3 2 2 2 1 1 1 2 1 1 0 3 4 4 4 4 3 4 3 2 3 3 2 2 3 3 3 3 3 2 3 3 3 4 4 3 3 3 2 2 2 2 3 3 2 3 4 3
3 3 2 3 2 1 1 1 1 1 1 2 4 5 4 4 3 3 3 4 4 3 2 2 2 3 3 3 3 3 2 3 3 3 3 4 3 3 3 2 2 2 2 3 3 3 4 4 4
2 2 3 4 3 2 1 1 1 2 1 4 5 4 3 3 3 3 4 3 3 3 2 2 2 2 3 3 3 3 2 2 3 3 3 4 3 3 3 3 2 2 2 3 3 3 4 3 3
1 2 4 4 3 3 2 2 2 2 3 3 3 3 3 3 3 3 2 2 2 2 2 2 2 2 2 3 3 3 3 3 2 3 3 4 4 4 3 3 2 2 2 3 3 3 3 3 3
1 1 3 4 2 2 4 4 3 1 4 2 2 2 3 3 3 3 2 2 2 2 2 2 2 3 2 2 2 2 3 3 2 2 3 4 4 4 3 3 2 2 2 3 3 3 3 3 3
2 2 3 5 2 0 3 4 2 1 4 2 1 2 3 3 3 3 3 2 2 2 2 3 3 3 3 2 2 2 3 3 2 2 2 3 3 4 3 3 2 2 2 2 3 3 3 4 4
3 3 3 4 2 1 2 3 1 1 3 2 1 1 2 2 1 2 2 3 2 2 3 3 3 3 3 2 2 2 3 2 2 2 2 3 3 4 3 3 2 3 2 2 3 3 3 3 4
2 3 4 5 3 0 3 3 2 1 2 1 1 1 1 1 1 1 2 3 3 3 3 3 3 3 3 2 2 1 2 1 2 1 2 3 3 3 3 2 3 3 3 3 4 4 4 3 3
2 3 3 3 2 1 2 2 1 1 1 1 1 1 1 1 2 2 3 3 3 3 2 3 2 2 2 1 0 1 1 1 1 1 2 2 3 3 3 3 2 3 3 3 3 4 3 2 2
3 4 4 3 4 2 0 3 1 2 3 3 3 2 1 2 2 1 1 2 2 3 2 2 2 2 2 2 2 2 2 2 2 2 1 1 2 2 2 2 3 3 3 3 3 3 4 3 1
5 4 4 3 1 3 1 3 3 2 2 4 3 3 2 1 1 1 1 2 2 1 2 2 2 2 3 3 3 3 2 1 0 1 1 1 2 2 2 2 2 2 2 3 2 2 2 4 3
5 4 4 4 3 2 1 2 4 0 2 3 3 3 2 2 1 2 1 1 1 2 2 2 2 2 2 2 3 3 2 1 1 1 2 2 1 2 2 2 2 2 1 2 2 2 2 2 2
4 1 1 2 2 3 3 4 4 1 3 2 2 3 3 2 2 1 2 2 2 2 3 3 2 2 2 2 3 3 2 2 2 2 1 1 1 1 1 1 1 2 1 1 2 2 2 2 2
3 3 3 3 1 4 2 2 3 2 1 2 1 2 2 2 2 2 2 2 2 2 2 2 2 3 2 2 2 3 2 2 1 1 1 1 1 1 0 1 1 1 1 1 2 2 1 2 2
2 2 3 2 3 3 1 2 3 2 1 1 1 1 2 3 2 2 2 2 2 2 2 2 2 2 2 2 1 2 2 1 1 1 1 0 0 1 1 1 1 1 1 1 1 1 1 1 1
1 0 2 2 1 1 3 2 4 2 3 3 3 3 3 3 3 3 3 3 2 2 2 2 2 2 2 2 2 2 2 1 1 1 1 1 1 1 0 0 1 1 1 1 2 1 1 2 1
1 1 2 2 1 2 3 2 2 3 3 3 3 2 2 3 3 4 3 3 3 2 2 2 2 2 2 2 2 2 1 1 1 1 1 1 1 1 1 1 1 1 1 1 2 1 1 2 2
4 3 1 1 1 3 2 4 1 2 1 1 1 2 1 1 2 3 3 3 3 3 3 3 3 3 2 1 1 2 2 1 1 1 1 1 1 1 1 1 1 1 1 1 2 2 2 2 2
1 1 1 2 2 1 2 4 2 1 1 1 2 2 3 2 2 3 3 3 3 4 3 3 3 2 2 1 1 1 1 1 1 1 1 1 1 1 1 1 1 1 1 1 2 2 2 3 3
Wind_Direction
329 336 46 59 61 63 233 239 225 220 217 220 150 117 120 122 136 149 143 130 131 145 154 150 145 140 137 133 128 126 125 122 120 121 120 118 114 113 112 111 110 108 105 102 100 99 98 97 96
328 345 54 67 109 186 248 233 220 226 208 183 84 91 91 91 76 103 109 135 139 144 148 149 143 140 137 134 132 129 127 124 122 122 122 121 118 116 115 114 112 110 107 104 102 100 98 97 96
327 38 89 97 164 196 217 221 212 227 245 185 101 60 108 122 109 130 152 140 136 139 142 147 142 140 137 135 134 132 130 127 124 122 120 122 121 119 118 116 113 111 108 106 103 101 100 99 96
45 49 65 124 219 222 214 216 198 209 345 38 119 80 72 42 134 143 135 132 131 133 137 144 141 140 138 137 136 135 133 130 125 122 121 122 124 123 119 115 115 113 111 109 107 105 103 100 97
65 90 118 229 236 241 243 259 243 172 322 6 100 110 68 354 52 111 123 127 130 134 134 141 140 141 140 140 139 137 134 131 129 127 125 125 122 121 120 118 118 118 117 115 111 108 105 101 99
73 95 165 223 236 244 250 280 265 323 290 15 80 115 116 12 71 111 116 121 126 129 129 138 136 138 141 141 140 137 134 131 130 128 125 124 123 121 122 123 123 123 123 120 117 111 106 102 100
130 143 204 220 230 243 253 255 173 224 261 303 106 113 118 6 44 105 107 106 111 116 117 117 130 135 138 138 136 134 131 129 127 126 122 118 118 122 122 123 127 128 126 123 119 114 109 106 103
140 132 223 234 225 238 288 277 173 137 225 333 79 125 170 258 74 96 97 96 99 99 107 110 111 114 121 133 133 130 128 127 125 121 116 112 115 120 121 119 122 127 128 126 122 116 111 107 104
95 132 221 227 218 245 336 1 342 5 69 38 39 87 153 137 110 95 92 83 90 93 91 104 110 111 110 121 129 127 127 127 124 122 119 113 109 110 117 121 122 124 127 127 126 118 110 104 102
101 196 225 237 206 206 339 338 321 25 30 23 19 20 54 96 108 107 115 125 126 124 112 105 118 120 119 119 117 122 125 127 121 122 120 114 113 113 116 122 123 121 123 127 125 116 110 103 97
161 210 238 268 287 248 6 336 349 115 32 14 62 39 64 77 85 107 115 128 146 149 133 120 125 125 121 118 120 113 116 119 118 123 121 119 111 109 105 110 114 113 112 113 114 103 96 98 101
205 253 266 280 280 279 246 311 18 44 214 98 130 130 108 96 88 91 101 92 89 117 122 119 118 126 126 126 128 120 120 122 122 124 125 124 119 117 121 119 120 112 111 113 110 107 105 103 103
244 259 287 306 335 15 82 86 105 328 12 70 86 88 95 101 85 62 67 87 82 79 76 85 111 127 132 127 131 122 124 128 126 125 128 128 129 134 135 133 131 126 123 126 124 119 117 116 113
232 264 284 290 297 299 120 312 98 269 90 79 84 94 95 94 77 53 47 54 68 70 73 72 86 108 132 128 131 134 128 127 123 124 129 131 133 137 140 140 140 139 142 138 134 132 128 123 119
280 304 311 292 260 246 135 337 257 229 107 96 94 97 89 72 65 62 52 54 74 76 72 84 86 67 97 125 133 131 131 129 127 127 128 125 126 134 135 139 146 149 139 129 121 118 114 115 113
20 20 286 288 276 250 143 239 264 160 115 114 120 106 98 76 60 44 32 31 50 65 69 76 80 70 65 83 119 127 129 127 126 125 127 124 125 130 127 129 138 136 127 129 129 126 118 115 113
45 257 254 290 302 222 157 226 265 135 119 138 152 122 105 78 42 29 25 24 46 62 74 67 72 74 65 64 91 110 118 117 124 120 118 124 125 127 126 130 124 121 113 122 132 119 121 122 118
239 242 245 254 280 111 174 220 278 3 109 145 141 108 108 101 69 29 20 20 41 65 70 71 65 64 65 67 69 81 83 90 101 116 119 120 125 120 116 121 120 117 113 111 118 119 110 119 124
222 213 247 257 262 157 205 219 265 330 62 76 76 89 133 150 101 60 35 34 43 53 66 69 64 55 68 75 87 99 93 83 80 94 108 114 116 119 118 122 127 127 130 133 129 123 120 116 120
237 240 256 295 323 224 208 239 253 346 26 122 127 146 158 94 67 57 40 38 45 49 62 73 72 59 59 51 70 143 133 116 119 104 92 104 106 115 125 130 134 131 127 128 126 125 123 133 138
269 220 225 255 319 308 118 292 302 331 11 28 43 49 81 118 127 103 73 47 50 47 49 71 64 61 56 51 76 74 69 63 58 65 73 85 106 107 122 137 136 136 138 151 155 145 142 155 167
267 232 229 235 245 276 177 257 269 255 348 2 7 14 17 56 91 101 75 50 54 37 38 54 61 58 65 80 94 110 115 116 72 61 82 96 110 113 111 129 134 141 141 150 165 155 143 153 167
257 256 239 227 198 256 269 200 282 338 308 319 338 358 2 20 76 102 91 80 55 41 44 42 46 60 58 74 92 101 93 83 72 69 79 77 85 108 108 127 132 141 147 151 152 152 149 162 171
303 350 42 64 111 251 234 187 273 266 256 274 322 354 9 19 36 65 57 61 55 44 45 48 45 46 52 64 82 86 88 76 77 63 74 57 53 82 108 112 138 152 151 160 158 155 163 178 175
23 74 39 1 347 253 213 177 256 273 261 197 203 336 352 21 36 45 41 46 57 47 40 46 50 43 49 50 76 89 86 94 113 92 92 78 56 18 212 174 175 176 179 178 158 151 164 178 178
302 122 150 208 245 281 309 221 263 300 350 55 68 31 25 26 28 31 34 47 44 40 41 49 52 46 45 43 53 83 85 76 55 48 36 307 269 273 240 191 173 180 180 179 167 165 182 172 189
6 54 185 150 268 295 282 306 303 346 22 34 38 35 20 15 9 13 21 33 36 37 34 47 58 48 46 32 29 66 73 65 32 9 14 358 347 325 340 90 185 188 186 181 173 187 197 182 197
61 125 74 112 171 265 293 262 270 317 340 4 15 7 346 356 6 9 18 21 24 28 29 36 55 57 46 45 30 32 41 37 35 43 22 353 350 353 346 2 320 213 193 185 178 191 200 191 209
12 28 44 116 144 167 261 276 280 251 259 285 307 331 317 331 358 0 3 12 25 29 34 35 34 38 32 29 48 33 29 25 28 23 344 346 352 349 325 325 313 275 224 196 188 203 201 202 213
98 62 103 152 261 182 192 271 352 34 19 20 334 335 342 349 9 3 359 16 27 23 22 19 13 15 5 2 44 39 16 11 18 351 317 312 306 308 289 272 272 271 257 219 201 208 212 208 214